SAUDICOMSAT 3

Satellite information

Favourite Embed

Satellite Type and Status

PAYLOADIN ORBIT

Key statistics

Satellite SAUDICOMSAT 3 at a glance.

Uptime

6816

Days in orbit

Revolutions

≈ 14.7

Per day

Orbit

SSO

Sun Synchronous Orbit

Inclination

98.3

Latest

Satellite identification and parameters

Extended collection of information and parameters for SAUDICOMSAT 3.

Object identification

Identified? True

Debris? False

Object name: SAUDICOMSAT 3

International designator: 2007-012J

Object number (NORAD): 31125

Object ID (CCSDS): 31125

Country: SAUDI ARABIA (SAUD)

Current information (Y/N): Y

RCS size: SMALL

Orbital parameters

Period: 97.94 minutes

Inclination: 98.2912 deg

SMA: 7038.299 km

Apoapsis: 686.986 km

Periapsis: 633.341 km

RAAN: 312.8257 deg

Eccentricy: 0.00381098

Argument of periapsis: 285.0277 deg

Mean anomaly: 74.6712 deg

Mean motion: 14.7028399 rev/day

Mean motion (dot): 0.00001919 rev/day2

B* drag term: 0.00032329536 1/REarth

Two-line elements (TLE)

Creation date: Dec. 12, 2025, 3:16 a.m.

Reference frame: TEME

Reference center: EARTH

Epoch: Dec. 11, 2025, 8:36 p.m. UTC

TLE line 0: 0 SAUDICOMSAT 3

TLE line 1: 1 31125U 07012J 25345.85847427 .00001919 00000-0 32330-3 0 9990

TLE line 2: 2 31125 98.2912 312.8257 0038110 285.0277 74.6712 14.70283990997293

Live tracking on map

Real-time ground track for satellite SAUDICOMSAT 3.

In-orbit conjunctions

There are no conjunctions computed for SAUDICOMSAT 3, at the moment. Check back to stay up to date, as we update our databases every day.

Go to all conjunctions

Associated space launch

Rideshare mission with Egyptian and Saudi Arabian Earth observation satellites as well as 14 American cubesats

SAUDICOMSAT 3 was lifted into orbit during the mission ‘Dnepr | EgyptSat 1 & Saudisat 3’, on board a Dnepr space rocket.

The launch took place on April 17, 2007, 6:46 a.m. from 109/95.

For more information about the launch, click the button.

Launch to space Dnepr | EgyptSat 1 & Saudisat 3
Dnepr | EgyptSat 1 & Saudisat 3

Agency: N/A

Status: Launch Successful

Launch date: April 17, 2007, 6:46 a.m. UTC

Rocket: Dnepr

Launch pad: 109/95

Location: Baikonur Cosmodrome, Republic of Kazakhstan

...

Latest news about this satellite

There are no fresh news available about this satellite. Check back as we update our databases every day.


Newsletter sign-up

Weekly statistics, charts and insights to help you stay on top of the space industry.